Location: Unspecified
(35.6961°N, 0.0000°E)
Time: 19:20:15
(UTC+00:00)

EO-79 - Visible Passes

Search period start: 16 June 2019 00:00
Search period end: 26 June 2019 00:00
Orbit: 591 x 611 km, 97.9° (Epoch: 15 June)

Date Brightness Start Highest point End Pass type
(mag) Time Alt. Az. Time Alt. Az. Time Alt. Az.
16 Jun ? 00:51:41 10° N 00:54:12 32° NNW 00:54:12 32° NNW visible
16 Jun ? 23:28:43 10° NE 23:29:02 11° ENE 23:29:02 11° ENE visible
17 Jun ? 01:03:18 10° N 01:05:48 28° NW 01:05:48 28° NW visible
17 Jun ? 23:39:36 10° NE 23:40:37 15° NE 23:40:37 15° NE visible
18 Jun ? 01:15:01 10° NNW 01:17:24 23° NW 01:17:24 23° NW visible
18 Jun ? 23:50:41 10° NE 23:52:13 19° NE 23:52:13 19° NE visible
19 Jun ? 01:26:52 10° NNW 01:28:59 18° NW 01:28:59 18° NW visible
20 Jun ? 00:01:54 10° NNE 00:03:48 24° NE 00:03:48 24° NE visible
20 Jun ? 01:38:54 10° NNW 01:40:35 14° WNW 01:40:35 14° WNW visible
21 Jun ? 00:13:13 10° NNE 00:15:24 29° NE 00:15:24 29° NE visible
21 Jun ? 01:51:28 10° NW 01:52:10 11° WNW 01:52:10 11° WNW visible
22 Jun ? 00:24:35 10° NNE 00:26:59 33° NNE 00:26:59 33° NNE visible
23 Jun ? 00:36:03 10° N 00:38:34 35° N 00:38:34 35° N visible
24 Jun ? 00:47:34 10° N 00:50:09 34° NNW 00:50:09 34° NNW visible
25 Jun ? 00:59:10 10° N 01:01:44 30° NNW 01:01:44 30° NNW visible
25 Jun ? 23:35:44 10° NE 23:36:32 13° ENE 23:36:32 13° ENE visible
